Time,TemperatureF,DewpointF,PressureIn,WindDirection,WindDirectionDegrees,WindSpeedMPH,WindSpeedGustMPH,Humidity,HourlyPrecipIn,Conditions,Clouds,dailyrainin,SoftwareType,DateUTC
2013-03-23 00:02:00,26.2,23.2,30.09,South,182,0.0,4.0,88,0.00,,,0.00,meteohub,2013-03-22 23:02:00,
2013-03-23 00:12:00,26.4,23.4,30.09,South,182,1.0,4.0,88,0.00,,,0.00,meteohub,2013-03-22 23:12:00,
2013-03-23 00:17:00,26.4,23.4,30.09,NW,318,0.0,4.0,88,0.00,,,0.00,meteohub,2013-03-22 23:17:00,
2013-03-23 00:22:00,26.6,23.0,30.09,WNW,298,1.0,5.0,86,0.00,,,0.00,meteohub,2013-03-22 23:22:00,
2013-03-23 00:27:00,26.8,22.6,30.09,ESE,117,0.0,5.0,84,0.00,,,0.00,meteohub,2013-03-22 23:27:00,
2013-03-23 00:37:00,27.0,22.5,30.09,NNW,348,1.0,8.0,83,0.00,,,0.00,meteohub,2013-03-22 23:37:00,
2013-03-23 00:42:00,27.0,22.5,30.09,NNW,327,4.0,8.0,83,0.00,,,0.00,meteohub,2013-03-22 23:42:00,
2013-03-23 00:47:00,27.0,21.9,30.09,North,350,4.0,12.0,81,0.00,,,0.00,meteohub,2013-03-22 23:47:00,
2013-03-23 00:57:00,26.8,21.2,30.09,West,267,1.0,12.0,79,0.00,,,0.00,meteohub,2013-03-22 23:57:00,
2013-03-23 01:02:00,26.8,21.2,30.09,North,9,3.0,12.0,79,0.00,,,0.00,meteohub,2013-03-23 00:02:00,
2013-03-23 01:07:00,26.6,21.0,30.09,NNW,341,5.0,12.0,79,0.00,,,0.00,meteohub,2013-03-23 00:07:00,
2013-03-23 01:12:00,26.6,21.2,30.09,North,5,8.0,12.0,80,0.00,,,0.00,meteohub,2013-03-23 00:12:00,
2013-03-23 01:17:00,26.6,21.2,30.09,NNW,340,4.0,9.0,80,0.00,,,0.00,meteohub,2013-03-23 00:17:00,
2013-03-23 01:27:00,26.4,20.5,30.09,NNW,346,4.0,10.0,78,0.00,,,0.00,meteohub,2013-03-23 00:27:00,
2013-03-23 01:32:00,26.2,20.3,30.09,NNW,340,2.0,12.0,78,0.00,,,0.00,meteohub,2013-03-23 00:32:00,
2013-03-23 01:42:00,26.2,20.3,30.09,NNW,339,5.0,11.0,78,0.00,,,0.00,meteohub,2013-03-23 00:42:00,
2013-03-23 01:52:00,26.2,20.8,30.09,NNW,342,2.0,9.0,80,0.00,,,0.00,meteohub,2013-03-23 00:52:00,
2013-03-23 02:02:00,26.1,20.7,30.09,NNW,338,5.0,7.0,80,0.00,,,0.00,meteohub,2013-03-23 01:02:00,
2013-03-23 02:12:00,26.1,20.7,30.09,NNW,340,4.0,7.0,80,0.00,,,0.00,meteohub,2013-03-23 01:12:00,
2013-03-23 02:17:00,25.9,20.3,30.09,NNW,328,4.0,7.0,79,0.00,,,0.00,meteohub,2013-03-23 01:17:00,
2013-03-23 02:22:00,25.9,20.3,30.09,NNW,347,2.0,7.0,79,0.00,,,0.00,meteohub,2013-03-23 01:22:00,
2013-03-23 02:32:00,25.5,20.3,30.09,North,350,2.0,10.0,80,0.00,,,0.00,meteohub,2013-03-23 01:32:00,
2013-03-23 02:42:00,25.5,20.3,30.09,North,11,2.0,7.0,80,0.00,,,0.00,meteohub,2013-03-23 01:42:00,
2013-03-23 02:52:00,25.3,20.3,30.09,NE,40,0.0,8.0,81,0.00,,,0.00,meteohub,2013-03-23 01:52:00,
2013-03-23 03:02:00,25.3,20.3,30.09,NNW,335,4.0,8.0,81,0.00,,,0.00,meteohub,2013-03-23 02:02:00,
2013-03-23 03:07:00,25.2,20.1,30.09,North,355,2.0,8.0,81,0.00,,,0.00,meteohub,2013-03-23 02:07:00,
2013-03-23 03:12:00,25.2,20.1,30.08,NNE,17,2.0,10.0,81,0.00,,,0.00,meteohub,2013-03-23 02:12:00,
2013-03-23 03:17:00,25.0,19.9,30.08,North,350,4.0,10.0,81,0.00,,,0.00,meteohub,2013-03-23 02:17:00,
2013-03-23 03:22:00,25.0,20.3,30.09,North,5,1.0,10.0,82,0.00,,,0.00,meteohub,2013-03-23 02:22:00,
2013-03-23 03:27:00,25.0,20.3,30.09,SW,221,0.0,10.0,82,0.00,,,0.00,meteohub,2013-03-23 02:27:00,
2013-03-23 03:37:00,24.6,19.9,30.08,NNE,17,1.0,9.0,82,0.00,,,0.00,meteohub,2013-03-23 02:37:00,
2013-03-23 03:47:00,24.6,19.9,30.08,NNW,340,2.0,11.0,82,0.00,,,0.00,meteohub,2013-03-23 02:47:00,
2013-03-23 03:57:00,24.4,19.8,30.08,NNW,340,4.0,11.0,82,0.00,,,0.00,meteohub,2013-03-23 02:57:00,
2013-03-23 04:07:00,24.3,19.2,30.09,NNW,348,5.0,9.0,81,0.00,,,0.00,meteohub,2013-03-23 03:07:00,
2013-03-23 04:12:00,24.3,19.6,30.09,NW,317,5.0,9.0,82,0.00,,,0.00,meteohub,2013-03-23 03:12:00,
2013-03-23 04:22:00,24.3,19.6,30.09,West,268,1.0,8.0,82,0.00,,,0.00,meteohub,2013-03-23 03:22:00,
2013-03-23 04:27:00,24.1,19.0,30.09,NNE,30,1.0,8.0,81,0.00,,,0.00,meteohub,2013-03-23 03:27:00,
2013-03-23 04:37:00,23.9,18.9,30.09,North,355,1.0,9.0,81,0.00,,,0.00,meteohub,2013-03-23 03:37:00,
2013-03-23 04:42:00,23.7,18.7,30.09,NNW,327,5.0,9.0,81,0.00,,,0.00,meteohub,2013-03-23 03:42:00,
2013-03-23 04:52:00,23.7,19.0,30.09,North,5,4.0,8.0,82,0.00,,,0.00,meteohub,2013-03-23 03:52:00,
2013-03-23 04:57:00,23.7,19.0,30.09,North,355,1.0,8.0,82,0.00,,,0.00,meteohub,2013-03-23 03:57:00,
2013-03-23 05:02:00,23.7,19.0,30.09,North,0,3.0,7.0,82,0.00,,,0.00,meteohub,2013-03-23 04:02:00,
2013-03-23 05:07:00,23.7,18.7,30.09,North,355,2.0,7.0,81,0.00,,,0.00,meteohub,2013-03-23 04:07:00,
2013-03-23 05:12:00,23.7,19.0,30.09,NNE,20,2.0,7.0,82,0.00,,,0.00,meteohub,2013-03-23 04:12:00,
2013-03-23 05:17:00,23.5,18.5,30.09,NNW,327,2.0,7.0,81,0.00,,,0.00,meteohub,2013-03-23 04:17:00,
2013-03-23 05:22:00,23.5,18.5,30.09,North,355,5.0,7.0,81,0.00,,,0.00,meteohub,2013-03-23 04:22:00,
2013-03-23 05:27:00,23.5,18.5,30.09,North,0,2.0,7.0,81,0.00,,,0.00,meteohub,2013-03-23 04:27:00,
2013-03-23 05:32:00,23.5,18.5,30.09,NW,323,2.0,6.0,81,0.00,,,0.00,meteohub,2013-03-23 04:32:00,
2013-03-23 05:42:00,23.4,17.8,30.10,NNW,348,1.0,11.0,79,0.00,,,0.00,meteohub,2013-03-23 04:42:00,
2013-03-23 05:47:00,23.4,17.8,30.10,West,271,1.0,11.0,79,0.00,,,0.00,meteohub,2013-03-23 04:47:00,
2013-03-23 05:52:00,23.2,17.6,30.10,NNW,337,3.0,10.0,79,0.00,,,0.00,meteohub,2013-03-23 04:52:00,
2013-03-23 05:57:00,23.2,17.6,30.10,SSE,148,2.0,10.0,79,0.00,,,0.00,meteohub,2013-03-23 04:57:00,
2013-03-23 06:02:00,23.0,17.2,30.10,NNW,327,1.0,10.0,78,0.00,,,0.00,meteohub,2013-03-23 05:02:00,
2013-03-23 06:07:00,22.8,17.2,30.10,NNW,346,5.0,9.0,79,0.00,,,0.00,meteohub,2013-03-23 05:07:00,
2013-03-23 06:12:00,22.8,17.2,30.10,NNE,28,1.0,9.0,79,0.00,,,0.00,meteohub,2013-03-23 05:12:00,
2013-03-23 06:17:00,22.6,17.1,30.11,NNW,327,3.0,10.0,79,0.00,,,0.00,meteohub,2013-03-23 05:17:00,
2013-03-23 06:22:00,22.6,17.4,30.11,North,349,7.0,10.0,80,0.00,,,0.00,meteohub,2013-03-23 05:22:00,
2013-03-23 06:27:00,22.6,17.8,30.11,North,5,5.0,10.0,81,0.00,,,0.00,meteohub,2013-03-23 05:27:00,
2013-03-23 06:32:00,22.6,17.8,30.11,NNW,341,6.0,8.0,81,0.00,,,0.00,meteohub,2013-03-23 05:32:00,
2013-03-23 06:37:00,22.6,17.8,30.11,NNE,28,3.0,9.0,81,0.00,,,0.00,meteohub,2013-03-23 05:37:00,
2013-03-23 06:47:00,22.5,17.6,30.11,NNW,342,2.0,9.0,81,0.00,,,0.00,meteohub,2013-03-23 05:47:00,
2013-03-23 06:52:00,22.6,17.8,30.11,NNE,20,2.0,7.0,81,0.00,,,0.00,meteohub,2013-03-23 05:52:00,
2013-03-23 06:57:00,22.6,17.8,30.11,SSE,165,1.0,7.0,81,0.00,,,0.00,meteohub,2013-03-23 05:57:00,
2013-03-23 07:07:00,22.6,17.8,30.11,WNW,302,1.0,7.0,81,0.00,,,0.00,meteohub,2013-03-23 06:07:00,
2013-03-23 07:12:00,22.6,17.8,30.12,NNW,346,5.0,6.0,81,0.00,,,0.00,meteohub,2013-03-23 06:12:00,
2013-03-23 07:17:00,22.5,17.6,30.12,NNW,348,3.0,12.0,81,0.00,,,0.00,meteohub,2013-03-23 06:17:00,
2013-03-23 07:22:00,22.5,17.8,30.12,NW,312,2.0,12.0,82,0.00,,,0.00,meteohub,2013-03-23 06:22:00,
2013-03-23 07:27:00,22.3,17.6,30.12,North,5,5.0,12.0,82,0.00,,,0.00,meteohub,2013-03-23 06:27:00,
2013-03-23 07:37:00,22.3,17.6,30.12,NW,319,1.0,8.0,82,0.00,,,0.00,meteohub,2013-03-23 06:37:00,
2013-03-23 07:42:00,22.3,17.6,30.12,NNW,346,8.0,11.0,82,0.00,,,0.00,meteohub,2013-03-23 06:42:00,
2013-03-23 07:47:00,22.3,18.0,30.12,North,355,2.0,11.0,83,0.00,,,0.00,meteohub,2013-03-23 06:47:00,
2013-03-23 07:52:00,22.3,18.0,30.12,North,11,2.0,11.0,83,0.00,,,0.00,meteohub,2013-03-23 06:52:00,
2013-03-23 07:57:00,22.3,18.0,30.12,NNW,331,5.0,10.0,83,0.00,,,0.00,meteohub,2013-03-23 06:57:00,
2013-03-23 08:02:00,22.3,18.0,30.12,NW,324,5.0,10.0,83,0.00,,,0.00,meteohub,2013-03-23 07:02:00,
2013-03-23 08:07:00,22.3,18.0,30.12,NNW,340,2.0,10.0,83,0.00,,,0.00,meteohub,2013-03-23 07:07:00,
2013-03-23 08:12:00,22.1,17.8,30.12,NNW,333,1.0,10.0,83,0.00,,,0.00,meteohub,2013-03-23 07:12:00,
2013-03-23 08:17:00,22.1,18.0,30.12,NW,313,4.0,10.0,84,0.00,,,0.00,meteohub,2013-03-23 07:17:00,
2013-03-23 08:27:00,22.1,18.0,30.12,North,355,4.0,10.0,84,0.00,,,0.00,meteohub,2013-03-23 07:27:00,
2013-03-23 08:32:00,22.3,18.1,30.12,North,9,0.0,10.0,84,0.00,,,0.00,meteohub,2013-03-23 07:32:00,
2013-03-23 08:42:00,22.8,17.2,30.12,North,0,5.0,9.0,79,0.00,,,0.00,meteohub,2013-03-23 07:42:00,
2013-03-23 08:47:00,23.4,16.9,30.12,NNW,346,4.0,11.0,76,0.00,,,0.00,meteohub,2013-03-23 07:47:00,
2013-03-23 08:57:00,24.6,16.9,30.12,NNW,338,6.0,13.0,72,0.00,,,0.00,meteohub,2013-03-23 07:57:00,
2013-03-23 09:02:00,25.2,16.2,30.13,NW,306,1.0,16.0,68,0.00,,,0.00,meteohub,2013-03-23 08:02:00,
2013-03-23 09:07:00,25.2,16.2,30.13,NNW,336,2.0,18.0,68,0.00,,,0.00,meteohub,2013-03-23 08:07:00,
2013-03-23 09:17:00,25.3,15.3,30.12,SW,229,7.0,18.0,65,0.00,,,0.00,meteohub,2013-03-23 08:17:00,
2013-03-23 09:22:00,25.5,15.4,30.13,North,355,1.0,15.0,65,0.00,,,0.00,meteohub,2013-03-23 08:22:00,
2013-03-23 09:32:00,25.5,14.4,30.13,NW,318,10.0,16.0,62,0.00,,,0.00,meteohub,2013-03-23 08:32:00,
2013-03-23 09:42:00,25.5,15.1,30.13,NNW,339,2.0,18.0,64,0.00,,,0.00,meteohub,2013-03-23 08:42:00,
2013-03-23 09:52:00,25.9,15.4,30.13,North,355,6.0,18.0,64,0.00,,,0.00,meteohub,2013-03-23 08:52:00,
2013-03-23 09:57:00,25.5,14.7,30.13,North,355,5.0,19.0,63,0.00,,,0.00,meteohub,2013-03-23 08:57:00,
2013-03-23 10:07:00,26.1,16.0,30.13,NE,38,4.0,20.0,65,0.00,,,0.00,meteohub,2013-03-23 09:07:00,
2013-03-23 10:12:00,26.8,16.2,30.13,NE,38,1.0,20.0,64,0.00,,,0.00,meteohub,2013-03-23 09:12:00,
2013-03-23 10:17:00,26.6,15.6,30.13,NNE,15,7.0,12.0,63,0.00,,,0.00,meteohub,2013-03-23 09:17:00,
2013-03-23 10:22:00,27.0,15.6,30.13,SSW,213,1.0,12.0,62,0.00,,,0.00,meteohub,2013-03-23 09:22:00,
2013-03-23 10:32:00,27.0,15.6,30.13,NE,44,4.0,14.0,62,0.00,,,0.00,meteohub,2013-03-23 09:32:00,
2013-03-23 10:37:00,26.8,16.2,30.13,NNW,348,10.0,14.0,64,0.00,,,0.00,meteohub,2013-03-23 09:37:00,
2013-03-23 10:42:00,26.6,16.0,30.13,NNE,17,5.0,23.0,64,0.00,,,0.00,meteohub,2013-03-23 09:42:00,
2013-03-23 10:47:00,27.0,16.3,30.13,NNE,13,5.0,23.0,64,0.00,,,0.00,meteohub,2013-03-23 09:47:00,
2013-03-23 10:52:00,26.6,16.0,30.13,NW,321,3.0,23.0,64,0.00,,,0.00,meteohub,2013-03-23 09:52:00,
2013-03-23 11:02:00,26.8,16.2,30.13,NNW,327,2.0,15.0,64,0.00,,,0.00,meteohub,2013-03-23 10:02:00,
2013-03-23 11:07:00,26.6,17.1,30.13,NNW,329,1.0,15.0,67,0.00,,,0.00,meteohub,2013-03-23 10:07:00,
2013-03-23 11:12:00,27.1,17.2,30.13,NNE,21,12.0,12.0,66,0.00,,,0.00,meteohub,2013-03-23 10:12:00,
2013-03-23 11:22:00,26.4,16.9,30.13,North,9,5.0,14.0,67,0.00,,,0.00,meteohub,2013-03-23 10:22:00,
2013-03-23 11:27:00,26.1,16.9,30.13,NNE,22,1.0,18.0,68,0.00,,,0.00,meteohub,2013-03-23 10:27:00,
2013-03-23 11:32:00,26.6,17.4,30.13,NNE,19,6.0,18.0,68,0.00,,,0.00,meteohub,2013-03-23 10:32:00,
2013-03-23 11:37:00,27.0,17.4,30.13,NNE,17,5.0,18.0,67,0.00,,,0.00,meteohub,2013-03-23 10:37:00,
2013-03-23 11:42:00,27.0,17.1,30.13,NNW,338,9.0,14.0,66,0.00,,,0.00,meteohub,2013-03-23 10:42:00,
2013-03-23 11:47:00,27.1,17.2,30.13,North,350,7.0,14.0,66,0.00,,,0.00,meteohub,2013-03-23 10:47:00,
2013-03-23 11:57:00,27.5,17.6,30.13,NNW,339,4.0,15.0,66,0.00,,,0.00,meteohub,2013-03-23 10:57:00,
2013-03-23 12:02:00,27.9,18.0,30.12,NNW,342,1.0,15.0,66,0.00,,,0.00,meteohub,2013-03-23 11:02:00,
2013-03-23 12:12:00,28.2,17.6,30.12,NNW,347,2.0,12.0,64,0.00,,,0.00,meteohub,2013-03-23 11:12:00,
2013-03-23 12:17:00,28.6,16.9,30.13,SSE,154,4.0,12.0,61,0.00,,,0.00,meteohub,2013-03-23 11:17:00,
2013-03-23 12:27:00,28.2,16.5,30.12,SSW,206,1.0,13.0,61,0.00,,,0.00,meteohub,2013-03-23 11:27:00,
2013-03-23 12:37:00,28.0,15.3,30.12,NE,37,1.0,13.0,58,0.00,,,0.00,meteohub,2013-03-23 11:37:00,
2013-03-23 12:42:00,28.2,16.2,30.12,NNE,22,7.0,16.0,60,0.00,,,0.00,meteohub,2013-03-23 11:42:00,
2013-03-23 12:47:00,28.2,15.3,30.12,NNE,17,6.0,16.0,58,0.00,,,0.00,meteohub,2013-03-23 11:47:00,
2013-03-23 12:52:00,28.6,15.6,30.12,NNW,348,3.0,16.0,58,0.00,,,0.00,meteohub,2013-03-23 11:52:00,
2013-03-23 12:57:00,28.9,16.0,30.12,NNE,22,7.0,14.0,58,0.00,,,0.00,meteohub,2013-03-23 11:57:00,
2013-03-23 13:02:00,28.6,13.1,30.12,East,79,5.0,10.0,52,0.00,,,0.00,meteohub,2013-03-23 12:02:00,
2013-03-23 13:07:00,28.6,13.6,30.12,NNW,342,4.0,13.0,53,0.00,,,0.00,meteohub,2013-03-23 12:07:00,
2013-03-23 13:12:00,28.4,14.4,30.12,North,5,4.0,14.0,55,0.00,,,0.00,meteohub,2013-03-23 12:12:00,
2013-03-23 13:22:00,28.2,14.5,30.12,South,170,1.0,14.0,56,0.00,,,0.00,meteohub,2013-03-23 12:22:00,
2013-03-23 13:27:00,28.6,15.3,30.11,South,173,2.0,13.0,57,0.00,,,0.00,meteohub,2013-03-23 12:27:00,
2013-03-23 13:37:00,28.8,15.4,30.12,WNW,300,4.0,13.0,57,0.00,,,0.00,meteohub,2013-03-23 12:37:00,
2013-03-23 13:42:00,28.9,14.7,30.12,North,349,8.0,12.0,55,0.00,,,0.00,meteohub,2013-03-23 12:42:00,
2013-03-23 13:47:00,28.9,15.6,30.12,SW,234,2.0,12.0,57,0.00,,,0.00,meteohub,2013-03-23 12:47:00,
2013-03-23 13:57:00,29.1,15.4,30.12,ENE,57,2.0,14.0,56,0.00,,,0.00,meteohub,2013-03-23 12:57:00,
2013-03-23 14:07:00,28.9,13.1,30.11,NNE,32,5.0,14.0,51,0.00,,,0.00,meteohub,2013-03-23 13:07:00,
2013-03-23 14:12:00,28.9,12.6,30.11,SSE,158,1.0,16.0,50,0.00,,,0.00,meteohub,2013-03-23 13:12:00,
2013-03-23 14:22:00,28.9,13.1,30.11,WNW,295,2.0,16.0,51,0.00,,,0.00,meteohub,2013-03-23 13:22:00,
2013-03-23 14:27:00,28.9,11.7,30.11,NW,320,5.0,14.0,48,0.00,,,0.00,meteohub,2013-03-23 13:27:00,
2013-03-23 14:37:00,28.8,11.5,30.11,NNW,343,5.0,13.0,48,0.00,,,0.00,meteohub,2013-03-23 13:37:00,
2013-03-23 14:47:00,28.6,12.7,30.11,North,0,4.0,14.0,51,0.00,,,0.00,meteohub,2013-03-23 13:47:00,
2013-03-23 14:57:00,28.6,12.4,30.11,NW,315,4.0,12.0,50,0.00,,,0.00,meteohub,2013-03-23 13:57:00,
2013-03-23 15:07:00,28.8,12.9,30.11,NNW,334,4.0,12.0,51,0.00,,,0.00,meteohub,2013-03-23 14:07:00,
2013-03-23 15:17:00,28.8,12.0,30.11,NW,313,2.0,12.0,49,0.00,,,0.00,meteohub,2013-03-23 14:17:00,
2013-03-23 15:22:00,26.6,11.3,30.11,NE,40,5.0,13.0,52,0.00,,,0.00,meteohub,2013-03-23 14:22:00,
2013-03-23 15:27:00,26.6,11.8,30.11,SSW,207,5.0,13.0,53,0.00,,,0.00,meteohub,2013-03-23 14:27:00,
2013-03-23 15:37:00,26.4,9.3,30.11,NE,36,6.0,12.0,48,0.00,,,0.00,meteohub,2013-03-23 14:37:00,
2013-03-23 15:47:00,26.1,9.1,30.11,NNW,333,4.0,11.0,48,0.00,,,0.00,meteohub,2013-03-23 14:47:00,
2013-03-23 15:52:00,26.1,10.8,30.11,North,349,5.0,13.0,52,0.00,,,0.00,meteohub,2013-03-23 14:52:00,
2013-03-23 15:57:00,26.1,9.5,30.11,North,5,8.0,13.0,49,0.00,,,0.00,meteohub,2013-03-23 14:57:00,
2013-03-23 16:07:00,26.1,10.0,30.11,WSW,242,1.0,13.0,50,0.00,,,0.00,meteohub,2013-03-23 15:07:00,
2013-03-23 16:12:00,26.1,10.0,30.11,NNE,13,5.0,13.0,50,0.00,,,0.00,meteohub,2013-03-23 15:12:00,
2013-03-23 16:22:00,26.1,10.8,30.11,North,351,9.0,16.0,52,0.00,,,0.00,meteohub,2013-03-23 15:22:00,
2013-03-23 16:27:00,25.9,10.8,30.11,North,355,2.0,13.0,52,0.00,,,0.00,meteohub,2013-03-23 15:27:00,
2013-03-23 16:32:00,25.9,9.9,30.11,North,0,3.0,13.0,50,0.00,,,0.00,meteohub,2013-03-23 15:32:00,
2013-03-23 16:42:00,26.1,10.0,30.11,North,11,8.0,14.0,50,0.00,,,0.00,meteohub,2013-03-23 15:42:00,
2013-03-23 16:47:00,26.1,10.4,30.11,NNW,336,6.0,14.0,51,0.00,,,0.00,meteohub,2013-03-23 15:47:00,
2013-03-23 16:52:00,26.1,10.4,30.11,NNE,16,2.0,15.0,51,0.00,,,0.00,meteohub,2013-03-23 15:52:00,
2013-03-23 17:02:00,26.1,10.0,30.11,North,355,3.0,12.0,50,0.00,,,0.00,meteohub,2013-03-23 16:02:00,
2013-03-23 17:07:00,25.9,10.8,30.11,NNE,13,5.0,12.0,52,0.00,,,0.00,meteohub,2013-03-23 16:07:00,
2013-03-23 17:17:00,25.3,10.2,30.11,NNE,17,5.0,12.0,52,0.00,,,0.00,meteohub,2013-03-23 16:17:00,
2013-03-23 17:22:00,25.2,10.4,30.11,NNE,13,6.0,12.0,53,0.00,,,0.00,meteohub,2013-03-23 16:22:00,
2013-03-23 17:27:00,25.0,10.8,30.11,North,355,1.0,14.0,54,0.00,,,0.00,meteohub,2013-03-23 16:27:00,
2013-03-23 17:32:00,24.6,10.4,30.11,North,9,6.0,14.0,54,0.00,,,0.00,meteohub,2013-03-23 16:32:00,
2013-03-23 17:42:00,24.4,10.9,30.12,North,351,2.0,12.0,56,0.00,,,0.00,meteohub,2013-03-23 16:42:00,
2013-03-23 17:52:00,24.3,11.3,30.12,North,355,4.0,14.0,57,0.00,,,0.00,meteohub,2013-03-23 16:52:00,
2013-03-23 18:02:00,23.7,9.5,30.12,NW,325,6.0,13.0,54,0.00,,,0.00,meteohub,2013-03-23 17:02:00,
2013-03-23 18:07:00,23.5,8.4,30.13,NNE,13,3.0,12.0,52,0.00,,,0.00,meteohub,2013-03-23 17:07:00,
2013-03-23 18:12:00,23.4,9.1,30.13,NNE,12,4.0,12.0,54,0.00,,,0.00,meteohub,2013-03-23 17:12:00,
2013-03-23 18:22:00,24.6,11.1,30.13,North,5,4.0,12.0,56,0.00,,,0.00,meteohub,2013-03-23 17:22:00,
2013-03-23 18:27:00,24.4,10.2,30.13,NNW,346,6.0,15.0,54,0.00,,,0.00,meteohub,2013-03-23 17:27:00,
2013-03-23 18:37:00,24.3,10.0,30.14,NE,34,2.0,13.0,54,0.00,,,0.00,meteohub,2013-03-23 17:37:00,
2013-03-23 18:47:00,23.7,9.9,30.14,WNW,294,5.0,12.0,55,0.00,,,0.00,meteohub,2013-03-23 17:47:00,
2013-03-23 18:57:00,23.5,10.6,30.14,North,0,6.0,10.0,57,0.00,,,0.00,meteohub,2013-03-23 17:57:00,
2013-03-23 19:02:00,23.4,10.8,30.15,NNW,339,1.0,12.0,58,0.00,,,0.00,meteohub,2013-03-23 18:02:00,
2013-03-23 19:07:00,23.2,10.6,30.15,North,0,4.0,12.0,58,0.00,,,0.00,meteohub,2013-03-23 18:07:00,
2013-03-23 19:12:00,22.6,9.7,30.15,NW,321,4.0,12.0,57,0.00,,,0.00,meteohub,2013-03-23 18:12:00,
2013-03-23 19:17:00,22.6,10.0,30.15,North,349,6.0,11.0,58,0.00,,,0.00,meteohub,2013-03-23 18:17:00,
2013-03-23 19:27:00,22.3,9.7,30.15,WNW,298,1.0,12.0,58,0.00,,,0.00,meteohub,2013-03-23 18:27:00,
2013-03-23 19:32:00,22.1,10.0,30.15,NNW,337,5.0,12.0,59,0.00,,,0.00,meteohub,2013-03-23 18:32:00,
2013-03-23 19:37:00,21.9,9.3,30.15,North,355,6.0,12.0,58,0.00,,,0.00,meteohub,2013-03-23 18:37:00,
2013-03-23 19:42:00,21.7,9.3,30.15,North,5,7.0,10.0,58,0.00,,,0.00,meteohub,2013-03-23 18:42:00,
2013-03-23 19:52:00,21.7,9.3,30.16,NE,36,6.0,13.0,58,0.00,,,0.00,meteohub,2013-03-23 18:52:00,
2013-03-23 20:02:00,21.6,8.6,30.16,North,5,2.0,12.0,57,0.00,,,0.00,meteohub,2013-03-23 19:02:00,
2013-03-23 20:07:00,21.4,8.1,30.16,NW,319,4.0,12.0,56,0.00,,,0.00,meteohub,2013-03-23 19:07:00,
2013-03-23 20:17:00,21.0,7.3,30.16,North,5,7.0,13.0,55,0.00,,,0.00,meteohub,2013-03-23 19:17:00,
2013-03-23 20:22:00,20.8,7.2,30.16,WNW,290,1.0,13.0,55,0.00,,,0.00,meteohub,2013-03-23 19:22:00,
2013-03-23 20:32:00,20.7,7.5,30.16,WNW,292,5.0,13.0,56,0.00,,,0.00,meteohub,2013-03-23 19:32:00,
2013-03-23 20:37:00,20.7,7.5,30.17,NNW,344,6.0,12.0,56,0.00,,,0.00,meteohub,2013-03-23 19:37:00,
2013-03-23 20:42:00,20.5,7.3,30.17,North,5,1.0,12.0,56,0.00,,,0.00,meteohub,2013-03-23 19:42:00,
2013-03-23 20:52:00,20.5,7.7,30.17,SE,125,5.0,11.0,57,0.00,,,0.00,meteohub,2013-03-23 19:52:00,
2013-03-23 20:57:00,20.5,8.1,30.17,NNW,336,6.0,13.0,58,0.00,,,0.00,meteohub,2013-03-23 19:57:00,
2013-03-23 21:07:00,20.5,8.1,30.17,NNE,13,5.0,13.0,58,0.00,,,0.00,meteohub,2013-03-23 20:07:00,
2013-03-23 21:12:00,20.3,7.5,30.17,North,5,3.0,12.0,57,0.00,,,0.00,meteohub,2013-03-23 20:12:00,
2013-03-23 21:22:00,20.1,7.3,30.17,NNE,26,1.0,14.0,57,0.00,,,0.00,meteohub,2013-03-23 20:22:00,
2013-03-23 21:27:00,20.1,7.3,30.17,SSE,151,1.0,14.0,57,0.00,,,0.00,meteohub,2013-03-23 20:27:00,
2013-03-23 21:32:00,19.9,7.2,30.17,North,355,12.0,12.0,57,0.00,,,0.00,meteohub,2013-03-23 20:32:00,
2013-03-23 21:37:00,19.9,7.2,30.17,NNW,344,8.0,16.0,57,0.00,,,0.00,meteohub,2013-03-23 20:37:00,
2013-03-23 21:42:00,19.8,7.3,30.17,NNW,340,10.0,16.0,58,0.00,,,0.00,meteohub,2013-03-23 20:42:00,
2013-03-23 21:47:00,19.8,7.3,30.17,WNW,294,1.0,16.0,58,0.00,,,0.00,meteohub,2013-03-23 20:47:00,
2013-03-23 21:52:00,19.8,7.7,30.17,NNW,342,7.0,12.0,59,0.00,,,0.00,meteohub,2013-03-23 20:52:00,
2013-03-23 22:02:00,19.4,6.6,30.17,North,0,5.0,18.0,57,0.00,,,0.00,meteohub,2013-03-23 21:02:00,
2013-03-23 22:07:00,19.2,6.4,30.18,SW,221,2.0,18.0,57,0.00,,,0.00,meteohub,2013-03-23 21:07:00,
2013-03-23 22:17:00,19.0,7.2,30.18,North,5,2.0,14.0,59,0.00,,,0.00,meteohub,2013-03-23 21:17:00,
2013-03-23 22:22:00,18.9,7.0,30.18,NNW,335,4.0,14.0,59,0.00,,,0.00,meteohub,2013-03-23 21:22:00,
2013-03-23 22:32:00,18.7,6.8,30.18,North,355,5.0,11.0,59,0.00,,,0.00,meteohub,2013-03-23 21:32:00,
2013-03-23 22:37:00,18.3,6.4,30.18,NNW,341,11.0,12.0,59,0.00,,,0.00,meteohub,2013-03-23 21:37:00,
2013-03-23 22:42:00,18.1,6.6,30.18,North,0,1.0,13.0,60,0.00,,,0.00,meteohub,2013-03-23 21:42:00,
2013-03-23 22:47:00,18.1,6.6,30.17,NNW,340,7.0,13.0,60,0.00,,,0.00,meteohub,2013-03-23 21:47:00,
2013-03-23 22:57:00,17.8,6.6,30.17,North,9,2.0,12.0,61,0.00,,,0.00,meteohub,2013-03-23 21:57:00,
2013-03-23 23:02:00,17.8,7.0,30.17,North,5,4.0,12.0,62,0.00,,,0.00,meteohub,2013-03-23 22:02:00,
2013-03-23 23:07:00,17.6,7.2,30.17,NNW,333,4.0,12.0,63,0.00,,,0.00,meteohub,2013-03-23 22:07:00,
2013-03-23 23:17:00,17.4,7.3,30.17,North,355,8.0,8.0,64,0.00,,,0.00,meteohub,2013-03-23 22:17:00,
2013-03-23 23:22:00,17.2,7.2,30.17,NW,313,1.0,10.0,64,0.00,,,0.00,meteohub,2013-03-23 22:22:00,
2013-03-23 23:27:00,17.1,7.0,30.17,North,9,5.0,10.0,64,0.00,,,0.00,meteohub,2013-03-23 22:27:00,
2013-03-23 23:32:00,17.1,7.3,30.17,NNE,23,1.0,10.0,65,0.00,,,0.00,meteohub,2013-03-23 22:32:00,
2013-03-23 23:37:00,16.9,7.2,30.17,North,11,8.0,9.0,65,0.00,,,0.00,meteohub,2013-03-23 22:37:00,
2013-03-23 23:47:00,16.7,7.3,30.18,SW,227,1.0,9.0,66,0.00,,,0.00,meteohub,2013-03-23 22:47:00,
2013-03-23 23:52:00,16.5,7.2,30.18,WNW,294,1.0,9.0,66,0.00,,,0.00,meteohub,2013-03-23 22:52:00,